Weather reports worldwide

Advertisment
Cap Corse, France (7785): temperature & dewpoint: 17.05.2019 14:00:00 - 23.05.2019 14:00:00 (CEST)Cap Corse, France (7785): wind speed & gusts: 17.05.2019 14:00:00 - 23.05.2019 14:00:00 (CEST)Cap Corse, France (7785): wind direction: 17.05.2019 14:00:00 - 23.05.2019 14:00:00 (CEST)Cap Corse, France (7785): reduced air pressure: 17.05.2019 14:00:00 - 23.05.2019 14:00:00 (CEST)Cap Corse, France (7785): visibility: 17.05.2019 14:00:00 - 23.05.2019 14:00:00 (CEST)Cap Corse, France (7785): precipitation: 17.05.2019 14:00:00 - 23.05.2019 14:00:00 (CEST)
Date & Time tt [°C] td [°C] ff [km/h] ff [kn] fx [km/h] fx [kn] dd ppp [hPa] vv [km] rr [mm]
23.05.2019 14:00:00 18,8 14,9 21 11 34 18 E 1017,5 13 -
23.05.2019 13:00:00 18,7 14,6 21 12 30 16 E 1017,8 - 0,0
23.05.2019 12:00:00 17,7 14,6 16 8 22 12 E 1018,2 - 0,0
23.05.2019 11:00:00 17,7 15,0 10 6 15 8 ENE 1018,2 10 0,0
23.05.2019 10:00:00 16,8 14,4 7 4 13 7 E 1018,3 - 0,0
23.05.2019 09:00:00 16,3 14,5 7 4 13 7 ENE 1018,2 - 0,0
23.05.2019 08:00:00 16,7 14,2 5 3 10 5 ENE 1017,6 10 0,0
23.05.2019 07:00:00 14,9 13,6 6 3 14 7 W 1017,4 - 0,0
23.05.2019 06:00:00 14,2 12,9 11 6 17 9 WSW 1017,5 - 0,0
23.05.2019 05:00:00 14,3 13,0 13 7 19 11 SW 1017,4 10 0,0
23.05.2019 04:00:00 14,5 13,2 10 5 23 12 WSW 1017,4 - 0,0
23.05.2019 03:00:00 15,4 14,4 16 9 29 16 WSW 1017,6 - 0,0
23.05.2019 02:00:00 15,6 14,3 25 13 32 18 W 1017,6 - 0,0
23.05.2019 01:00:00 15,6 13,4 16 9 27 15 W 1017,6 - 0,0
23.05.2019 00:00:00 15,8 14,0 15 8 29 15 SW 1017,4 - 0,0
22.05.2019 23:00:00 16,2 14,2 11 6 22 12 SW 1017,4 - 0,0
22.05.2019 22:00:00 15,9 14,1 0 0 12 6 N 1016,9 - 0,0
22.05.2019 21:00:00 15,4 13,2 7 4 15 8 SE 1016,4 - 0,0
22.05.2019 20:00:00 17,2 14,1 7 4 26 14 E 1016,1 - 0,0
22.05.2019 19:00:00 18,2 13,9 20 11 27 15 E 1015,5 - 0,0
22.05.2019 18:00:00 18,4 13,7 20 11 35 19 E 1015,6 - 0,0
22.05.2019 17:00:00 19,3 12,8 21 11 33 18 E 1015,3 15 0,0
22.05.2019 16:00:00 20,1 13,5 21 12 43 23 E 1015,3 - 0,0
22.05.2019 15:00:00 20,4 14,3 24 13 45 25 E 1015,5 - 0,0
22.05.2019 14:00:00 20,8 14,0 25 14 50 27 ESE 1015,6 15 0,0
22.05.2019 13:00:00 19,8 13,9 29 16 49 27 E 1015,7 - 0,0
22.05.2019 12:00:00 19,7 13,4 32 18 45 24 E 1015,7 - 0,0
22.05.2019 11:00:00 19,9 14,0 26 14 41 22 ESE 1015,4 15 0,0
22.05.2019 10:00:00 19,0 14,5 18 10 28 15 SE 1015,1 - 0,0
22.05.2019 09:00:00 17,6 12,7 4 2 21 12 W 1015,1 - 0,0
22.05.2019 08:00:00 17,0 12,9 5 3 29 16 NW 1014,9 15 0,0
22.05.2019 07:00:00 16,6 12,3 19 10 36 19 SSE 1014,8 - 0,0
22.05.2019 06:00:00 16,1 12,5 27 15 38 20 SE 1014,3 - 0,0
22.05.2019 05:00:00 15,6 13,1 20 11 27 15 ESE 1014,3 15 0,0
22.05.2019 04:00:00 16,2 12,2 16 9 26 14 ESE 1014,7 - 0,0
22.05.2019 03:00:00 16,4 10,9 6 3 32 17 WSW 1014,8 - 0,0
22.05.2019 02:00:00 17,0 10,6 14 8 34 18 SW 1014,8 - 0,0
22.05.2019 01:00:00 16,6 11,7 6 3 36 19 W 1015,2 - 0,0
22.05.2019 00:00:00 18,4 8,6 22 12 64 35 SW 1014,9 - 0,0
21.05.2019 23:00:00 18,0 9,3 36 19 68 37 SW 1014,7 - 0,0
21.05.2019 22:00:00 18,7 8,4 40 21 83 45 WSW 1014,1 - 0,0
21.05.2019 21:00:00 17,7 10,1 41 22 74 40 WSW 1013,5 - 0,0
21.05.2019 20:00:00 17,9 10,5 34 19 86 46 WSW 1013,6 - 0,0
21.05.2019 19:00:00 18,1 11,4 52 28 83 45 W 1012,3 - 0,0
21.05.2019 18:00:00 19,1 11,9 20 11 72 39 SW 1013,4 - 0,0
21.05.2019 17:00:00 18,9 11,7 36 20 81 44 WSW 1013,2 15 0,0
21.05.2019 16:00:00 19,5 11,5 23 13 53 29 SW 1013,3 - 0,0
21.05.2019 15:00:00 19,8 12,1 28 15 66 35 SW 1013,3 - 0,0
21.05.2019 14:00:00 19,1 12,4 28 15 61 33 WSW 1012,8 15 0,0
21.05.2019 13:00:00 19,5 12,5 20 11 77 42 SW 1012,7 - 0,0
21.05.2019 12:00:00 18,6 12,6 51 28 81 44 WSW 1011,8 - 0,0
21.05.2019 11:00:00 18,3 12,1 29 16 74 40 SW 1011,9 15 0,0
21.05.2019 10:00:00 17,7 12,4 28 15 81 44 SW 1011,2 - 0,0
21.05.2019 09:00:00 17,1 12,4 55 30 89 48 W 1010,2 - 0,0
21.05.2019 08:00:00 16,8 12,3 34 19 82 44 SW 1010,0 12 0,0
21.05.2019 07:00:00 16,1 12,3 44 24 100 54 WSW 1009,3 - 0,0
21.05.2019 06:00:00 15,7 12,1 64 35 101 54 WSW 1008,3 - 0,0
21.05.2019 05:00:00 15,6 12,0 47 25 101 55 WSW 1008,8 - 0,0
21.05.2019 04:00:00 15,7 12,1 41 22 77 41 WSW 1009,5 - 0,0
21.05.2019 03:00:00 16,1 11,9 42 23 93 50 WSW 1009,2 - 0,0
21.05.2019 02:00:00 16,3 11,9 39 21 71 39 WSW 1009,6 - 0,0
21.05.2019 01:00:00 16,5 11,6 27 15 54 29 SW 1010,0 - 0,0
21.05.2019 00:00:00 16,0 12,0 13 7 53 29 WSW 1009,9 - 0,0
20.05.2019 23:00:00 16,0 12,2 35 19 65 35 WSW 1009,4 - 0,0
20.05.2019 22:00:00 15,6 12,7 27 15 53 29 WSW 1009,1 - 0,0
20.05.2019 21:00:00 15,4 13,1 38 21 61 33 WSW 1008,7 - 0,0
20.05.2019 20:00:00 15,7 13,0 23 12 35 19 W 1009,1 - 0,0
20.05.2019 19:00:00 16,3 13,0 21 11 35 19 W 1009,0 - 0,0
20.05.2019 18:00:00 16,0 12,9 22 12 35 19 W 1009,0 - 0,0
20.05.2019 17:00:00 16,4 12,6 24 13 48 26 W 1008,8 20 0,0
20.05.2019 16:00:00 18,0 13,3 35 19 45 25 W 1008,1 - 0,0
20.05.2019 15:00:00 18,6 9,1 23 12 43 23 ESE 1007,9 - 0,0
20.05.2019 14:00:00 19,0 10,0 23 12 45 24 ESE 1007,5 20 0,0
20.05.2019 13:00:00 19,2 11,0 24 13 40 22 ESE 1007,4 - 0,0
20.05.2019 12:00:00 18,9 10,2 25 13 39 21 ESE 1007,2 - 0,0
20.05.2019 11:00:00 19,2 10,7 16 9 32 17 ENE 1007,0 20 0,0
20.05.2019 10:00:00 18,0 8,5 12 7 18 10 NNE 1007,2 - 0,0
20.05.2019 09:00:00 17,4 9,0 11 6 14 8 W 1007,0 - 0,0
20.05.2019 08:00:00 16,5 7,4 0 0 11 6 N 1006,8 20 0,0
20.05.2019 07:00:00 14,1 7,2 4 2 18 10 W 1006,6 - 0,0
20.05.2019 06:00:00 14,2 6,0 14 7 51 28 SW 1006,2 - 0,0
20.05.2019 05:00:00 14,8 6,6 24 13 65 35 SW 1005,9 15 0,0
20.05.2019 04:00:00 14,5 7,3 30 16 61 33 SW 1006,1 - 0,0
20.05.2019 03:00:00 14,0 9,6 27 15 78 42 WSW 1006,5 - 0,0
20.05.2019 02:00:00 14,4 11,0 41 22 86 46 WSW 1006,4 - 0,0
20.05.2019 01:00:00 14,4 10,8 45 24 80 43 W 1006,6 - 0,0
20.05.2019 00:00:00 14,3 10,7 55 30 87 47 WSW 1006,5 - 0,0
19.05.2019 23:00:00 14,4 10,6 53 29 98 53 W 1006,4 - 0,0
19.05.2019 22:00:00 14,6 10,2 61 33 95 52 W 1005,9 - 0,0
19.05.2019 21:00:00 14,6 10,8 58 31 93 50 W 1005,5 - 0,0
19.05.2019 20:00:00 14,7 11,5 59 32 102 55 W 1005,4 - 0,0
19.05.2019 19:00:00 15,4 11,6 58 32 79 43 WSW 1005,4 - 0,0
19.05.2019 18:00:00 16,1 12,6 51 28 73 40 W 1005,4 - 0,0
19.05.2019 17:00:00 16,5 13,0 51 28 85 46 WSW 1005,1 12 0,0
19.05.2019 16:00:00 16,1 12,5 51 27 78 42 WSW 1005,1 - 0,0
19.05.2019 15:00:00 15,8 12,7 50 27 77 41 WSW 1005,0 - 0,0
19.05.2019 14:00:00 16,5 11,6 44 24 67 36 W 1005,0 12 0,0
19.05.2019 13:00:00 16,0 12,7 44 24 58 31 W 1004,8 - 0,2
19.05.2019 12:00:00 14,7 12,4 35 19 62 34 WSW 1005,2 - 0,0
19.05.2019 11:00:00 13,5 12,2 35 19 66 36 W 1005,1 12 0,2
19.05.2019 10:00:00 14,0 11,2 45 24 69 37 W 1004,6 12 0,0
19.05.2019 09:00:00 13,5 12,1 29 16 54 29 WSW 1005,0 - 0,0
19.05.2019 08:00:00 13,3 12,4 37 20 68 37 WSW 1004,8 12 0,0
19.05.2019 07:00:00 13,1 11,3 27 15 54 29 WSW 1004,9 - 0,0
19.05.2019 06:00:00 13,0 12,1 27 15 53 29 WSW 1005,0 - 0,0
19.05.2019 05:00:00 13,0 12,1 34 18 56 31 WSW 1005,0 - 0,0
19.05.2019 04:00:00 12,9 12,1 32 18 56 31 WSW 1005,6 - 0,0
19.05.2019 03:00:00 12,8 12,2 28 15 47 25 WSW 1005,9 - 0,4
19.05.2019 02:00:00 12,9 11,8 36 19 54 29 W 1006,5 - 0,0
19.05.2019 01:00:00 13,4 12,1 29 15 44 24 W 1007,1 - 0,0
19.05.2019 00:00:00 13,5 12,1 27 15 47 26 W 1007,1 - 0,0
18.05.2019 23:00:00 13,2 12,3 36 19 52 28 WNW 1007,1 - 1,2
18.05.2019 22:00:00 14,3 12,7 36 19 51 27 WNW 1006,6 - 0,0
18.05.2019 21:00:00 14,4 12,4 13 7 26 14 NW 1006,0 - 0,2
18.05.2019 20:00:00 14,8 12,7 22 12 31 17 N 1005,5 - 0,0
18.05.2019 19:00:00 15,1 13,8 23 13 29 16 N 1005,1 - 0,0
18.05.2019 18:00:00 15,6 14,0 20 11 23 12 N 1004,7 - 0,0
18.05.2019 17:00:00 16,3 14,1 17 9 26 14 NNE 1004,2 15 0,0
18.05.2019 16:00:00 15,8 14,3 25 14 36 19 NNE 1003,8 - 0,0
18.05.2019 15:00:00 16,3 14,5 29 16 39 21 NNE 1003,7 - 0,0
18.05.2019 14:00:00 16,0 14,4 11 6 18 10 ENE 1003,7 12 0,0
18.05.2019 13:00:00 15,6 14,6 15 8 24 13 ENE 1003,5 - 1,2
18.05.2019 12:00:00 14,6 13,1 18 10 27 15 ENE 1003,0 - 0,2
18.05.2019 11:00:00 15,1 14,3 11 6 42 23 E 1002,7 12 0,8
18.05.2019 10:00:00 14,2 13,4 29 16 49 26 E 1002,3 - 0,0
18.05.2019 09:00:00 13,7 13,1 30 16 51 28 E 1001,9 - 0,2
18.05.2019 08:00:00 13,2 12,4 39 21 61 33 E 1001,5 10 2,0
18.05.2019 07:00:00 12,9 12,3 30 16 66 36 ESE 1001,4 - 0,0
18.05.2019 06:00:00 13,2 12,9 31 17 73 39 ESE 1000,9 - 0,0
18.05.2019 05:00:00 13,2 12,9 31 17 66 36 E 1000,9 10 1,3
18.05.2019 04:00:00 13,3 13,1 47 26 64 35 E 1001,4 - 3,4
18.05.2019 03:00:00 13,1 12,8 43 23 79 43 E 1002,4 - 11,2
18.05.2019 02:00:00 13,6 12,8 52 28 70 38 E 1002,8 - 2,0
18.05.2019 01:00:00 14,0 12,9 50 27 71 38 E 1003,3 - 2,8
18.05.2019 00:00:00 14,4 12,8 31 17 61 33 ESE 1004,5 - 0,4
17.05.2019 23:00:00 14,8 12,8 45 24 84 46 ESE 1005,0 - 0,0
17.05.2019 22:00:00 15,3 12,1 57 31 86 47 ESE 1004,5 - 0,0
17.05.2019 21:00:00 15,1 11,5 47 26 86 47 ESE 1004,0 - 0,0
17.05.2019 20:00:00 15,0 10,6 49 27 86 47 SE 1003,6 15 0,0
17.05.2019 19:00:00 15,2 9,8 42 23 92 50 ESE 1004,0 - 0,0
17.05.2019 18:00:00 15,4 10,4 46 25 89 48 ESE 1004,3 - 0,0
17.05.2019 17:00:00 16,1 9,7 33 18 76 41 SE 1004,9 18 0,0
17.05.2019 16:00:00 16,8 8,7 18 10 59 32 SSE 1006,3 - 0,0
17.05.2019 15:00:00 16,8 8,2 24 13 62 33 SE 1006,5 - 0,0
17.05.2019 14:00:00 16,0 11,0 36 20 72 39 ESE 1007,1 18 0,0

tt = temperature
td = dewpoint
ff = wind speed
fx = gusts
dd = wind direction
ppp = reduced air pressure
vv = visibility
rr = precipitation

Next stations